sat.trackr.live / text

‹ back to catalog

2025-055D

NORAD 63294 · 2025-055D

PAYLOAD ACTIVE UNKNOWN

§ Identity

Operator
Country
PRC
Launch date
2025-03-17
Launch site
JSC
Launch vehicle
Mass (kg)
RCS (m²)

External: N2YO · Heavens-Above · Gunter

§ Orbital elements

Epoch: 2026-05-25T04:39:30.312576Z

Period
94.97 min
Inclination
97.6488°
Eccentricity
0.0014696
Mean motion
15.16220290 rev/d
Perigee alt
507.1 km
Apogee alt
527.4 km
Semi-major
6,895.4 km
B*
4.5303e-4
RAAN
284.7930°
Arg perigee
213.8537°
Mean anomaly
146.1759°
Rev number
6,552

§ Raw data

2025-055D1 63294U 25055D   26145.19410084  .00008713  00000+0  45303-3 0  99922 63294  97.6488 284.7930 0014696 213.8537 146.1759 15.16220290 65525

JSON: /api/v1/satellites/63294 · /tle

For live sub-satellite position, see the globe view (requires WebGL).

§ Visibility from observer

Set your observer location to see the next 7 days of passes ≥ 10°. The values pass through the URL so the page stays shareable.

No JS? Fill the form by hand. The geolocation button needs JavaScript.